Weather History for KSNA - March, 2014

Change the Weather History Date:

Monday, March 3, 2014

  Actual Average Record
Temperature  
Mean Temperature 61 °F 58 °F  
Max Temperature 69 °F 67 °F 79 °F (2007)
Min Temperature 52 °F 50 °F 43 °F (2002)
Degree Days  
Heating Degree Days 4 7  
Month to date heating degree days 14 21  
Since 1 July heating degree days 504 927  
Cooling Degree Days 0 0  
Month to date cooling degree days 0 0  
Year to date cooling degree days 27 8  
Growing Degree Days 10 (Base 50)    
Moisture  
Dew Point 51 °F    
Average Humidity 73    
Maximum Humidity 93    
Minimum Humidity 52    
Precipitation  
Precipitation 0.00 in 0.13 in 0.28 in (2006)
Month to date precipitation 0.70 0.39  
Year to date precipitation 2.27 6.25  
Since 1 July precipitation 3.32  
Snow  
Snow 0.00 in - - ()
Month to date snowfall 0.0  
Year to date snowfall 0.0  
Since 1 July snowfall 0.0  
Snow Depth 0.00 in    
Sea Level Pressure  
Sea Level Pressure 30.09 in    
Wind  
Wind Speed 3 mph (West)    
Max Wind Speed 14 mph    
Max Gust Speed 18 mph    
Visibility 9 miles    
Events      
T = Trace of Precipitation, MM = Missing Value Source: NWS Daily Summary

Daily Weather History Graph

Daily Weather History Graph

Search for Another Location

Airport or City:

Trip Planner

Search our weather history database for the weather conditions in past years. The results will help you decide how hot, cold, wet, or windy it might be!

Date:

Astronomy

Mar. 03, 2014 Rise Set
Actual Time 6:17 AM PST 5:49 PM PST
Civil Twilight 5:52 AM PST 6:14 PM PST
Nautical Twilight 5:23 AM PST 6:43 PM PST
Astronomical Twilight 4:54 AM PST 7:12 PM PST
Moon 7:37 AM PST (3/3) 8:47 PM PST (3/3)
Length of Visible Light 12h 22m
Length of Day
11h 32m
Waxing Crescent, 8% of the Moon is Illuminated
Mar 3
Waxing Crescent
Mar 8
First Quarter
Mar 16
Full
Mar 23
Last Quarter
Mar 30
New

Hourly Weather History & Observations

Time (PST) Temp. Dew Point Humidity Pressure Visibility Wind Dir Wind Speed Gust Speed Precip Events Conditions
12:17 AM 55.4 °F 51.8 °F 88% 30.14 in 10.0 mi Calm Calm - N/A   Partly Cloudy
12:53 AM 55.0 °F 51.1 °F 86% 30.14 in 10.0 mi Calm Calm - N/A   Clear
1:53 AM 54.0 °F 51.1 °F 90% 30.13 in 10.0 mi Calm Calm - N/A   Clear
2:53 AM 54.0 °F 51.1 °F 90% 30.12 in 8.0 mi Calm Calm - N/A   Clear
3:19 AM 53.6 °F 50.0 °F 88% 30.11 in 10.0 mi Calm Calm - N/A   Mostly Cloudy
3:44 AM 53.6 °F 50.0 °F 88% 30.11 in 10.0 mi Calm Calm - N/A   Scattered Clouds
3:53 AM 53.1 °F 50.0 °F 89% 30.11 in 10.0 mi Calm Calm - N/A   Clear
4:31 AM 53.6 °F 50.0 °F 88% 30.10 in 9.0 mi Calm Calm - N/A   Mostly Cloudy
4:53 AM 54.0 °F 50.0 °F 86% 30.11 in 10.0 mi Calm Calm - N/A   Overcast
5:53 AM 55.0 °F 51.1 °F 86% 30.10 in 8.0 mi NE 4.6 mph - N/A   Mostly Cloudy
6:23 AM 55.4 °F 51.8 °F 88% 30.10 in 7.0 mi Calm Calm - N/A   Scattered Clouds
6:53 AM 57.0 °F 51.1 °F 81% 30.11 in 7.0 mi Variable 3.5 mph - N/A   Scattered Clouds
7:53 AM 57.9 °F 52.0 °F 81% 30.12 in 8.0 mi Calm Calm - N/A   Mostly Cloudy
8:53 AM 60.1 °F 52.0 °F 75% 30.12 in 8.0 mi WNW 4.6 mph - N/A   Mostly Cloudy
9:53 AM 63.0 °F 50.0 °F 63% 30.12 in 10.0 mi Variable 3.5 mph - N/A   Mostly Cloudy
10:53 AM 64.9 °F 48.9 °F 56% 30.11 in 10.0 mi Variable 6.9 mph - N/A   Mostly Cloudy
11:53 AM 66.9 °F 48.9 °F 52% 30.08 in 10.0 mi Variable 3.5 mph - N/A   Mostly Cloudy
12:53 PM 66.9 °F 52.0 °F 59% 30.06 in 10.0 mi West 8.1 mph 18.4 mph N/A   Scattered Clouds
1:53 PM 66.9 °F 53.1 °F 61% 30.05 in 10.0 mi WSW 6.9 mph - N/A   Scattered Clouds
2:53 PM 66.0 °F 51.1 °F 59% 30.03 in 10.0 mi Variable 6.9 mph - N/A   Scattered Clouds
3:53 PM 64.9 °F 50.0 °F 58% 30.04 in 10.0 mi West 9.2 mph - N/A   Scattered Clouds
4:53 PM 64.0 °F 51.1 °F 63% 30.03 in 10.0 mi SW 6.9 mph - N/A   Mostly Cloudy
5:53 PM 62.1 °F 52.0 °F 70% 30.04 in 10.0 mi West 5.8 mph - N/A   Mostly Cloudy
6:53 PM 61.0 °F 53.1 °F 75% 30.07 in 10.0 mi Variable 4.6 mph - N/A   Mostly Cloudy
7:53 PM 61.0 °F 53.1 °F 75% 30.06 in 10.0 mi WSW 3.5 mph - N/A   Scattered Clouds
8:53 PM 59.0 °F 54.0 °F 83% 30.07 in 10.0 mi Calm Calm - N/A   Scattered Clouds
9:53 PM 59.0 °F 54.0 °F 83% 30.06 in 10.0 mi Calm Calm - N/A   Partly Cloudy
10:53 PM 57.9 °F 53.1 °F 84% 30.05 in 10.0 mi Calm Calm - N/A   Clear
11:53 PM 57.0 °F 53.1 °F 87% 30.06 in 6.0 mi Calm Calm - N/A   Clear